Location: NJAA Observatory
(40.6819°N, 74.8979°W)
Time: 09:45:05
(UTC-04:00)

Cosmos 2263 Rocket - Visible Passes

Search period start: 26 June 2016 00:00
Search period end: 06 July 2016 00:00
Orbit: 823 x 849 km, 71.0° (Epoch: 25 June)

Date Brightness Start Highest point End Pass type
(mag) Time Alt. Az. Time Alt. Az. Time Alt. Az.
26 Jun 2.6 01:51:58 45° SE 01:52:43 47° ESE 01:58:09 10° NE visible
26 Jun 3.6 03:33:39 16° W 03:36:52 26° NW 03:41:36 10° N visible
27 Jun 2.7 01:35:36 42° ESE 01:36:03 43° ESE 01:41:25 10° NE visible
27 Jun 3.5 03:17:17 19° W 03:20:07 28° NW 03:25:00 10° N visible
28 Jun 2.9 01:19:12 40° ESE 01:19:24 40° ESE 01:24:40 10° NE visible
28 Jun 3.5 03:00:53 22° W 03:03:23 30° WNW 03:08:23 10° N visible
29 Jun 3.0 01:02:46 36° ESE 01:02:46 36° ESE 01:07:54 10° NE visible
29 Jun 3.4 02:44:27 25° W 02:46:40 33° WNW 02:51:45 10° N visible
30 Jun 3.1 00:46:19 33° E 00:46:19 33° E 00:51:08 10° NE visible
30 Jun 3.3 02:27:59 28° W 02:29:56 35° WNW 02:35:08 10° N visible
01 Jul 3.3 00:29:49 30° E 00:29:49 30° E 00:34:21 10° NE visible
01 Jul 3.2 02:11:29 31° W 02:13:12 38° WNW 02:18:29 10° N visible
02 Jul 3.4 00:13:16 28° E 00:13:16 28° E 00:17:32 10° NE visible
02 Jul 3.1 01:54:57 34° W 01:56:29 41° WNW 02:01:51 10° N visible
02 Jul 3.5 23:56:42 25° E 23:56:42 25° E 00:00:43 10° NE visible
03 Jul 3.0 01:38:22 37° W 01:39:46 44° WNW 01:45:12 10° NNE visible
03 Jul 3.6 23:40:05 23° E 23:40:05 23° E 23:43:54 10° NE visible
04 Jul 2.8 01:21:45 41° W 01:23:03 48° WNW 01:28:33 10° NNE visible
04 Jul 3.6 23:23:25 21° E 23:23:25 21° E 23:27:03 10° NE visible
05 Jul 2.7 01:05:05 44° WSW 01:06:20 52° WNW 01:11:53 10° NNE visible
05 Jul 3.7 23:06:43 20° E 23:06:43 20° E 23:10:11 10° NE visible
